Location: Aufkirchen
(47.9603°N, 11.3653°E)
Time: 15:15:59
(UTC+01:00)

Transit 2A - Pass Details

Date: 26 November 2020
Orbit: 599 x 960 km, 66.7° (Epoch: 25 January)

Event Time Altitude Azimuth Distance (km) Brightness Sun altitude
Rises 19:49:36 0° 247° (WSW) 3,622 10.3 -33.4°
Reaches altitude 10° 19:52:29 10° 257° (WSW) 2,658 9.5 -33.9°
Maximum altitude 19:58:02 33° 319° (NW) 1,494 7.7 -34.8°
Enters shadow 19:58:40 32° 332° (NNW) 1,508 7.7 -34.9°
Drops below altitude 10° 20:03:16 10° 23° (NNE) 2,505 - -35.7°
Sets 20:05:56 0° 33° (NNE) 3,387 - -36.1°
